The 180 - 410 metre wide asteroid 2010 TK7 will make a close pass (76.5 lunar distances, 0.1967 AU), travelling at 14.57 km/second, to the Earth-Moon system on the 5th December, 2013 @ 16:03 UT ±00:01.
Asteroid 2010 TK7 is the first Earth trojan asteroid to be discovered; it precedes Earth in its orbit around the Sun. Read more
On July 27, 2011, astronomers reported a trojan asteroid companion, 2010 TK7, librating around the leading Lagrange triangular point, L4, of Earth in Earth's orbit around the Sun. Read more
The 200 - 450 metre wide asteroid 2010 TK7 will make a close pass (76.8 lunar distances, 0.1974 AU), travelling at 14.59 km/second, to the Earth-Moon system on the 5th December, 2012 @ 06:56 UT ±00:01.
Title: The orbit of 2010 TK7. Possible regions of stability for other Earth Trojan asteroids Authors: Rudolf Dvorak, Christoph Lhotka, Liyong Zhou
Recently the first Earth Trojan has been observed (Connors et al., Nature 475) and found to be on an interesting orbit close to the Lagrange point L4. In the present study we therefore perform a detailed investigation on the stability of its orbit and moreover extend the study to give an idea of the probability to find additional Earth-Trojans. Our results are derived using different approaches: a) we derive an analytical mapping in the spatial elliptic restricted three-body problem to find the phase space structure of the dynamical problem. We explore the stability of the asteroid in the context of the phase space geometry, including the indirect influence of the additional planets of our Solar system. b) We use precise numerical methods to integrate the orbit forward and backward in time in different dynamical models. Based on a set of 400 clone orbits we derive the probability of capture and escape of the Earth Trojan asteroids 2010 TK7. c) To this end we perform an extensive numerical investigation of the stability region of the Earth's Lagrangian points. We present a detailed parameter study in the regime of possible stable tadpole and horseshoe orbits of additional Earth-Trojans, i.e. with respect to the semi-major axes and inclinations of thousands of fictitious Trojans. All three approaches underline that the Earth Trojan asteroid 2010 TK7 finds himself in an unstable region on the edge of a stable zone; additional Earth-Trojan asteroids may be found in this regime of stability.
The 200 - 450 metre wide asteroid 2010 TK7 will make a close pass (77.5 lunar distances, 0.1991 AU), travelling at 14.62 km/second, to the Earth-Moon system on the 5th December, 2011 @ 20:14 UT ±00:01.
Orbital elements:
2010 TK7 Earth MOID = 0.0856 AU
Epoch 2011 Aug. 27.0 TT = JDT 2455800.5 MPC
M 217.32936 (2000.0) P Q
n 0.98506338 Peri. 45.84555 -0.74532031 -0.56490315
a 1.0003683 Node 96.53951 +0.46319315 -0.82074361
e 0.1908209 Incl. 20.88002 +0.47953075 -0.08523117
P 1.00 H 20.9 G 0.15 U 4
According to news reports I have just read and partially understood, Alberta space scientist Martin Connors and his colleagues recently spotted Earth's first "Trojan asteroid," a teeny-tiny space rock that has apparently been happily cruising along with us as we orbit the sun since our planet was formed. Our itsy-bitsy space companion, known affectionately at the moment as Asteroid 2010 TK7, is about 300 metres across, located anywhere from 20 million to 50 million kilometres away, and reportedly makes a nifty dancing motion as it leads our planet in its dizzying journey around the sun. Read more
Trojan asteroid seen in Earth's orbit by Wise telescope
Astronomers have detected an asteroid not far from Earth, moving in the same orbit around the Sun. The 200-300m-wide rock sits in front of our planet at a gravitational "sweet spot", and poses no danger. Its position in the sky makes it a so-called Trojan asteroid - a type previously detected only at Jupiter, Neptune and Mars. Read more